Simultaneous Nadir Overpasses (SNOs) Predictions

Prediction of SNOs between AQUA and GOES-15 Satellite Orbit:

Table of predicted SNOs for the next 14.0 days since TLE Epoch: 10/2/2020
Index Date Time (AQUA) AQUA Lat,Lon GOES-15 Lat,Lon Distance(km) Time Diff (sec)
1 10/02/2020 22:22:33 -0.57,-131.66 0.13,-128.42 369.11 80
2 10/04/2020 22:10:21 0.06,-128.70 0.13,-128.42 32.30 80
3 10/06/2020 21:58:09 0.70,-125.75 0.13,-128.42 303.80 80
4 10/07/2020 10:19:24 0.42,-130.90 -0.13,-128.45 279.75 80
5 10/09/2020 10:07:12 -0.21,-127.94 -0.13,-128.44 55.49 80
6 10/11/2020 09:55:00 -0.85,-124.99 -0.14,-128.42 389.93 80
7 10/11/2020 22:16:24 -0.24,-130.18 0.14,-128.39 203.34 80
8 10/13/2020 22:04:12 0.41,-127.23 0.14,-128.37 130.69 80
9 10/14/2020 10:25:27 0.72,-132.38 -0.14,-128.39 453.88 80
10 10/15/2020 21:51:59 1.00,-124.26 0.14,-128.35 464.43 80
11 10/16/2020 10:13:15 0.08,-129.42 -0.14,-128.37 120.18 80
